Location: Powder Track
(41.8531°N, 72.3584°W)
Time: 21:57:19
(UTC+00:00)

Vanguard 2 Rocket - Pass Details

Date: 03 August 2021
Orbit: 555 x 3324 km, 32.9° (Epoch: 18 September)

Event Time Altitude Azimuth Distance (km) Brightness Sun altitude
Rises 12:24:26 0° 242° (WSW) 2,956 9.1 27.9°
Reaches altitude 10° 12:27:14 10° 227° (SW) 1,895 8.3 28.4°
Maximum altitude 12:30:28 23° 174° (S) 1,208 7.9 29.0°
Drops below altitude 10° 12:33:40 10° 120° (ESE) 1,875 9.7 29.6°
Sets 12:36:25 0° 105° (ESE) 2,914 10.6 30.1°
